| time (UTC) | temp C | wind direction | speed KPH | gust KPH | rain 1hr cm | rain 24hr cm | rain mn cm | humidity % | barometer mb |
| 20260505124944 | 3 | 154 | 0.0 | 8.0 | 0.00 | 0.13 | 0.13 | 99 | 1016.3 |
| 20260505124441 | 3 | 205 | 1.6 | 4.8 | 0.00 | 0.13 | 0.13 | 99 | 1016.4 |
| 20260505123937 | 3 | 168 | 1.6 | 8.0 | 0.00 | 0.13 | 0.13 | 99 | 1016.2 |
| 20260505123433 | 3 | 329 | 3.2 | 9.7 | 0.00 | 0.13 | 0.13 | 99 | 1016.1 |
| 20260505122929 | 3 | 29 | 1.6 | 6.4 | 0.00 | 0.13 | 0.13 | 99 | 1016.1 |
| 20260505122427 | 3 | 213 | 1.6 | 8.0 | 0.00 | 0.13 | 0.13 | 99 | 1016.2 |
| 20260505121923 | 3 | 95 | 6.4 | 8.0 | 0.00 | 0.13 | 0.13 | 99 | 1016.2 |
| 20260505121421 | 3 | 320 | 3.2 | 8.0 | 0.00 | 0.13 | 0.13 | 99 | 1016.3 |
| 20260505120916 | 3 | 291 | 0.0 | 4.8 | 0.00 | 0.13 | 0.13 | 99 | 1016.4 |
| 20260505120413 | 3 | 0 | 1.6 | 3.2 | 0.00 | 0.13 | 0.13 | 99 | 1016.4 |
| 20260505115912 | 3 | 67 | 0.0 | 4.8 | 0.00 | 0.13 | 0.13 | 99 | 1016.3 |
| 20260505115409 | 3 | 269 | 0.0 | 3.2 | 0.00 | 0.13 | 0.13 | 99 | 1016.2 |
| 20260505114907 | 3 | 320 | 0.0 | 3.2 | 0.00 | 0.13 | 0.13 | 99 | 1016.3 |
| 20260505114403 | 3 | 150 | 0.0 | 4.8 | 0.00 | 0.13 | 0.13 | 99 | 1016.2 |
| 20260505113859 | 3 | 7 | 1.6 | 4.8 | 0.00 | 0.13 | 0.13 | 99 | 1016.2 |
| 20260505113356 | 3 | 352 | 1.6 | 4.8 | 0.00 | 0.13 | 0.13 | 99 | 1016.4 |
| 20260505112852 | 3 | 302 | 1.6 | 4.8 | 0.00 | 0.13 | 0.13 | 99 | 1016.3 |
| 20260505112350 | 3 | 266 | 0.0 | 3.2 | 0.00 | 0.13 | 0.13 | 99 | 1016.1 |
| 20260505111845 | 3 | 48 | 1.6 | 4.8 | 0.00 | 0.13 | 0.13 | 99 | 1016.3 |
| 20260505111340 | 3 | 204 | 0.0 | 3.2 | 0.00 | 0.13 | 0.13 | 99 | 1016.3 |
| 20260505110837 | 3 | 174 | 0.0 | 3.2 | 0.00 | 0.13 | 0.13 | 99 | 1016.2 |
| 20260505110334 | 3 | 250 | 3.2 | 8.0 | 0.00 | 0.13 | 0.13 | 99 | 1016.1 |
| 20260505101809 | 3 | 124 | 0.0 | 3.2 | 0.00 | 0.13 | 0.13 | 99 | 1016.4 |
| 20260505101304 | 3 | 151 | 0.0 | 4.8 | 0.00 | 0.13 | 0.13 | 99 | 1016.6 |
| 20260505100801 | 3 | 109 | 0.0 | 6.4 | 0.00 | 0.13 | 0.13 | 99 | 1016.3 |
| 20260505100257 | 3 | 131 | 0.0 | 4.8 | 0.00 | 0.13 | 0.13 | 99 | 1016.3 |
| 20260505095753 | 3 | 233 | 3.2 | 4.8 | 0.00 | 0.13 | 0.13 | 99 | 1016.4 |
| 20260505095251 | 3 | 269 | 0.0 | 3.2 | 0.00 | 0.13 | 0.13 | 99 | 1016.6 |
| 20260505094746 | 3 | 169 | 4.8 | 4.8 | 0.00 | 0.13 | 0.13 | 99 | 1016.7 |
| 20260505094243 | 3 | 237 | 0.0 | 4.8 | 0.00 | 0.13 | 0.13 | 99 | 1016.4 |
| 20260505093739 | 3 | 178 | 1.6 | 4.8 | 0.00 | 0.13 | 0.13 | 99 | 1016.7 |
| 20260505093237 | 3 | 139 | 1.6 | 4.8 | 0.00 | 0.13 | 0.13 | 99 | 1016.8 |
| 20260505092734 | 3 | 129 | 1.6 | 3.2 | 0.00 | 0.13 | 0.13 | 99 | 1016.7 |
| 20260505092232 | 3 | 79 | 1.6 | 4.8 | 0.00 | 0.13 | 0.13 | 99 | 1016.8 |
| 20260505091729 | 3 | 197 | 1.6 | 4.8 | 0.00 | 0.13 | 0.13 | 99 | 1016.7 |
| 20260505091228 | 3 | 89 | 0.0 | 1.6 | 0.00 | 0.13 | 0.13 | 99 | 1016.8 |
| 20260505090725 | 3 | 241 | 3.2 | 4.8 | 0.00 | 0.13 | 0.13 | 99 | 1016.8 |
| 20260505090223 | 3 | 114 | 0.0 | 4.8 | 0.00 | 0.13 | 0.13 | 99 | 1016.8 |
| 20260505085720 | 3 | 257 | 4.8 | 9.7 | 0.00 | 0.13 | 0.13 | 99 | 1016.3 |
| 20260505085218 | 3 | 135 | 0.0 | 3.2 | 0.00 | 0.13 | 0.13 | 99 | 1016.8 |
| 20260505084715 | 3 | 119 | 0.0 | 1.6 | 0.00 | 0.13 | 0.13 | 99 | 1016.8 |
| 20260505084214 | 3 | 254 | 0.0 | 3.2 | 0.00 | 0.13 | 0.13 | 99 | 1016.8 |
| 20260505083710 | 3 | 224 | 0.0 | 3.2 | 0.00 | 0.13 | 0.13 | 99 | 1016.9 |
| 20260505083207 | 3 | 113 | 0.0 | 3.2 | 0.00 | 0.13 | 0.13 | 99 | 1017.0 |
| 20260505082703 | 3 | 174 | 0.0 | 4.8 | 0.00 | 0.13 | 0.13 | 99 | 1017.2 |
| 20260505082201 | 3 | 192 | 1.6 | 3.2 | 0.00 | 0.13 | 0.13 | 99 | 1016.8 |
| 20260505081656 | 3 | 13 | 3.2 | 4.8 | 0.00 | 0.13 | 0.13 | 99 | 1017.2 |
| 20260505081154 | 3 | 44 | 0.0 | 3.2 | 0.00 | 0.13 | 0.13 | 99 | 1017.3 |
| 20260505080651 | 3 | 221 | 1.6 | 9.7 | 0.05 | 0.13 | 0.13 | 99 | 1017.0 |
| 20260505080146 | 3 | 57 | 0.0 | 6.4 | 0.05 | 0.10 | 0.10 | 99 | 1017.0 |
| 20260505075642 | 3 | 239 | 4.8 | 8.0 | 0.05 | 0.10 | 0.10 | 99 | 1016.9 |
| 20260505075139 | 3 | 241 | 3.2 | 8.0 | 0.00 | 0.10 | 0.10 | 99 | 1017.0 |
| 20260505074636 | 3 | 255 | 3.2 | 9.7 | 0.00 | 0.10 | 0.10 | 99 | 1016.9 |
| 20260505074133 | 3 | 235 | 3.2 | 12.9 | 0.00 | 0.10 | 0.10 | 99 | 1016.8 |
| 20260505073631 | 3 | 233 | 4.8 | 6.4 | 0.13 | 0.10 | 0.10 | 99 | 1016.8 |
| 20260505073129 | 3 | 203 | 0.0 | 6.4 | 0.23 | 0.10 | 0.10 | 99 | 1016.9 |
| 20260505072624 | 3 | 230 | 3.2 | 4.8 | 0.18 | 0.08 | 0.08 | 99 | 1016.9 |
| 20260505072121 | 3 | 100 | 0.0 | 3.2 | 0.23 | 0.05 | 0.05 | 99 | 1017.0 |
| 20260505071617 | 3 | 150 | 3.2 | 6.4 | 0.30 | 0.05 | 0.05 | 99 | 1017.5 |
| 20260505071115 | 3 | 115 | 4.8 | 9.7 | 0.13 | 0.03 | 0.03 | 99 | 1017.5 |
| 20260505070612 | 3 | 70 | 6.4 | 8.0 | 0.00 | 0.00 | 0.00 | 99 | 1017.4 |
| 20260505070108 | 3 | 226 | 1.6 | 4.8 | 0.05 | 0.00 | 0.00 | 99 | 1017.0 |
| 20260505065604 | 3 | 61 | 4.8 | 6.4 | 0.13 | 1.19 | 1.19 | 99 | 1017.3 |
| 20260505065101 | 3 | 266 | 0.0 | 4.8 | 0.23 | 1.19 | 1.19 | 99 | 1017.0 |
| 20260505064558 | 3 | 67 | 4.8 | 17.7 | 0.30 | 1.17 | 1.17 | 99 | 1017.2 |
| 20260505064056 | 3 | 323 | 6.4 | 11.3 | 0.23 | 1.14 | 1.14 | 99 | 1016.7 |
| 20260505063553 | 3 | 192 | 3.2 | 4.8 | 0.13 | 1.12 | 1.12 | 99 | 1016.8 |
| 20260505063049 | 3 | 60 | 0.0 | 8.0 | 0.05 | 1.09 | 1.09 | 99 | 1016.7 |
| 20260505062545 | 3 | 126 | 3.2 | 4.8 | 0.05 | 1.09 | 1.09 | 99 | 1016.7 |
| 20260505062043 | 3 | 132 | 3.2 | 4.8 | 0.00 | 1.07 | 1.07 | 99 | 1016.8 |
| 20260505061540 | 3 | 149 | 0.0 | 4.8 | 0.00 | 1.07 | 1.07 | 99 | 1016.9 |
| 20260505061038 | 3 | 147 | 0.0 | 3.2 | 0.00 | 1.07 | 1.07 | 99 | 1016.8 |
| 20260505060535 | 3 | 181 | 0.0 | 3.2 | 0.00 | 1.07 | 1.07 | 99 | 1016.7 |
| 20260505060032 | 3 | 138 | 3.2 | 3.2 | 0.00 | 1.07 | 1.07 | 99 | 1016.7 |
| 20260505055527 | 3 | 310 | 3.2 | 6.4 | 0.00 | 1.07 | 1.07 | 99 | 1016.7 |
| 20260505055024 | 3 | 251 | 3.2 | 8.0 | 0.00 | 1.07 | 1.07 | 99 | 1016.8 |
| 20260505054521 | 3 | 156 | 0.0 | 12.9 | 0.00 | 1.07 | 1.07 | 99 | 1016.9 |
| 20260505054020 | 3 | 237 | 3.2 | 6.4 | 0.00 | 1.07 | 1.07 | 99 | 1016.9 |
| 20260505053516 | 3 | 252 | 3.2 | 6.4 | 0.00 | 1.07 | 1.07 | 99 | 1016.8 |
| 20260505053013 | 3 | 193 | 1.6 | 6.4 | 0.00 | 1.07 | 1.07 | 99 | 1017.2 |
| 20260505052510 | 3 | 308 | 0.0 | 9.7 | 0.05 | 1.07 | 1.07 | 99 | 1017.3 |
| 20260505052008 | 3 | 68 | 1.6 | 6.4 | 0.05 | 1.07 | 1.07 | 99 | 1017.2 |
| 20260505051504 | 3 | 185 | 0.0 | 3.2 | 0.00 | 1.07 | 1.07 | 99 | 1017.2 |
| 20260505051003 | 3 | 58 | 0.0 | 6.4 | 0.00 | 1.07 | 1.07 | 99 | 1017.2 |
| 20260505050500 | 3 | 89 | 0.0 | 8.0 | 0.00 | 1.07 | 1.07 | 99 | 1017.2 |
| 20260505041428 | 4 | 148 | 0.0 | 3.2 | 0.00 | 1.07 | 1.07 | 99 | 1016.9 |
| 20260505040925 | 4 | 195 | 0.0 | 3.2 | 0.00 | 1.07 | 1.07 | 99 | 1017.0 |
| 20260505040423 | 4 | 325 | 0.0 | 4.8 | 0.00 | 1.07 | 1.07 | 98 | 1016.9 |
| 20260505035919 | 4 | 201 | 3.2 | 3.2 | 0.00 | 1.07 | 1.07 | 98 | 1016.7 |
| 20260505035415 | 4 | 292 | 1.6 | 6.4 | 0.00 | 1.07 | 1.07 | 98 | 1016.4 |
| 20260505034913 | 4 | 173 | 0.0 | 4.8 | 0.00 | 1.07 | 1.07 | 99 | 1016.3 |
| 20260505034409 | 4 | 256 | 0.0 | 9.7 | 0.00 | 1.07 | 1.07 | 99 | 1016.4 |
| 20260505033906 | 4 | 250 | 3.2 | 6.4 | 0.00 | 1.07 | 1.07 | 99 | 1016.2 |
| 20260505033403 | 3 | 220 | 0.0 | 3.2 | 0.00 | 1.07 | 1.07 | 99 | 1016.1 |
| 20260505032901 | 3 | 222 | 3.2 | 8.0 | 0.00 | 1.07 | 1.07 | 98 | 1016.1 |
| 20260505032357 | 3 | 245 | 3.2 | 9.7 | 0.00 | 1.07 | 1.07 | 98 | 1016.4 |
| 20260505031854 | 3 | 264 | 0.0 | 4.8 | 0.00 | 1.07 | 1.07 | 98 | 1016.6 |
| 20260505031351 | 3 | 232 | 3.2 | 8.0 | 0.00 | 1.07 | 1.07 | 99 | 1016.6 |
| 20260505030848 | 3 | 251 | 4.8 | 6.4 | 0.05 | 1.07 | 1.07 | 98 | 1016.9 |
| 20260505030344 | 3 | 253 | 0.0 | 8.0 | 0.00 | 1.07 | 1.07 | 98 | 1016.9 |
| 20260505025839 | 3 | 332 | 3.2 | 6.4 | 0.00 | 1.07 | 1.07 | 98 | 1017.3 |
| 20260505025337 | 4 | 273 | 3.2 | 11.3 | 0.00 | 1.07 | 1.07 | 98 | 1016.9 |
| 20260505024836 | 4 | 157 | 1.6 | 11.3 | 0.05 | 1.07 | 1.07 | 99 | 1017.0 |
| 20260505024333 | 4 | 298 | 4.8 | 14.5 | 0.05 | 1.04 | 1.04 | 99 | 1016.7 |
| 20260505023830 | 4 | 113 | 0.0 | 3.2 | 0.05 | 1.04 | 1.04 | 99 | 1016.8 |
| 20260505023327 | 4 | 253 | 3.2 | 4.8 | 0.00 | 1.04 | 1.04 | 99 | 1016.7 |
| 20260505022824 | 4 | 159 | 3.2 | 8.0 | 0.00 | 1.04 | 1.04 | 99 | 1016.7 |
| 20260505022321 | 4 | 227 | 1.6 | 6.4 | 0.00 | 1.04 | 1.04 | 99 | 1016.3 |
| 20260505021819 | 4 | 163 | 0.0 | 6.4 | 0.00 | 1.04 | 1.04 | 98 | 1015.8 |
| 20260505021315 | 4 | 15 | 0.0 | 4.8 | 0.00 | 1.04 | 1.04 | 98 | 1016.2 |
| 20260505020811 | 4 | 194 | 0.0 | 9.7 | 0.00 | 1.04 | 1.04 | 98 | 1016.2 |
| 20260505020307 | 4 | 128 | 3.2 | 6.4 | 0.00 | 1.04 | 1.04 | 98 | 1016.2 |
| 20260505015804 | 4 | 256 | 3.2 | 16.1 | 0.00 | 1.04 | 1.04 | 98 | 1015.8 |
| 20260505015301 | 4 | 281 | 4.8 | 16.1 | 0.00 | 1.04 | 1.04 | 98 | 1015.1 |
| 20260505014758 | 4 | 141 | 6.4 | 14.5 | 0.13 | 1.04 | 1.04 | 98 | 1014.7 |
| 20260505014255 | 4 | 150 | 3.2 | 20.9 | 0.48 | 1.04 | 1.04 | 98 | 1015.1 |
| 20260505013751 | 4 | 283 | 4.8 | 16.1 | 0.71 | 1.02 | 1.02 | 98 | 1016.2 |
| 20260505013249 | 5 | 165 | 1.6 | 14.5 | 0.66 | 0.94 | 0.94 | 97 | 1016.9 |
| 20260505012747 | 5 | 230 | 3.2 | 8.0 | 0.36 | 0.89 | 0.89 | 97 | 1017.3 |
| 20260505012244 | 5 | 242 | 0.0 | 4.8 | 0.36 | 0.84 | 0.84 | 97 | 1017.8 |
| 20260505011739 | 5 | 201 | 0.0 | 6.4 | 0.30 | 0.81 | 0.81 | 97 | 1017.2 |
| 20260505011237 | 5 | 266 | 1.6 | 4.8 | 0.36 | 0.79 | 0.79 | 96 | 1017.4 |
| 20260505010732 | 5 | 263 | 0.0 | 6.4 | 0.66 | 0.76 | 0.76 | 96 | 1017.4 |
| 20260505010229 | 5 | 185 | 1.6 | 4.8 | 0.61 | 0.71 | 0.71 | 96 | 1017.3 |
| 20260505005725 | 5 | 60 | 0.0 | 1.6 | 0.48 | 0.64 | 0.64 | 96 | 1017.3 |
| 20260505005222 | 5 | 102 | 1.6 | 6.4 | 0.30 | 0.58 | 0.58 | 96 | 1017.0 |
| 20260505004720 | 5 | 282 | 1.6 | 4.8 | 0.23 | 0.56 | 0.56 | 96 | 1017.0 |
| 20260505004216 | 5 | 10 | 1.6 | 4.8 | 0.13 | 0.53 | 0.53 | 95 | 1017.3 |
| 20260505003713 | 5 | 135 | 3.2 | 8.0 | 0.13 | 0.51 | 0.51 | 95 | 1017.2 |
| 20260505003211 | 5 | 122 | 11.3 | 17.7 | 0.13 | 0.51 | 0.51 | 95 | 1016.8 |
| 20260505002707 | 5 | 151 | 3.2 | 9.7 | 0.13 | 0.48 | 0.48 | 96 | 1016.6 |
| 20260505002205 | 5 | 93 | 3.2 | 16.1 | 0.13 | 0.48 | 0.48 | 96 | 1016.4 |
| 20260505001702 | 5 | 184 | 4.8 | 9.7 | 0.48 | 0.46 | 0.46 | 96 | 1016.4 |
| 20260505001159 | 5 | 223 | 6.4 | 11.3 | 0.53 | 0.46 | 0.46 | 96 | 1016.3 |
| 20260505000656 | 5 | 177 | 6.4 | 11.3 | 0.30 | 0.38 | 0.38 | 95 | 1016.2 |
| 20260505000154 | 5 | 125 | 6.4 | 11.3 | 0.18 | 0.36 | 0.36 | 95 | 1016.1 |
| 20260504235650 | 5 | 135 | 6.4 | 11.3 | 0.13 | 0.33 | 0.33 | 94 | 1016.0 |
| 20260504235146 | 5 | 256 | 6.4 | 12.9 | 0.36 | 0.33 | 0.33 | 94 | 1016.2 |
| 20260504234644 | 5 | 186 | 9.7 | 17.7 | 0.18 | 0.28 | 0.28 | 94 | 1016.0 |
| 20260504234141 | 5 | 119 | 3.2 | 12.9 | 0.18 | 0.25 | 0.25 | 93 | 1015.8 |
| 20260504233636 | 5 | 313 | 4.8 | 17.7 | 0.23 | 0.25 | 0.25 | 94 | 1015.8 |
| 20260504233127 | 5 | 206 | 6.4 | 25.7 | 0.48 | 0.23 | 0.23 | 94 | 1016.0 |
| 20260504232625 | 5 | 239 | 11.3 | 19.3 | 0.53 | 0.20 | 0.20 | 93 | 1015.8 |
| 20260504232122 | 6 | 267 | 16.1 | 19.3 | 0.13 | 0.13 | 0.13 | 91 | 1016.1 |
| 20260504231619 | 6 | 185 | 4.8 | 12.9 | 0.13 | 0.13 | 0.13 | 90 | 1016.2 |
| 20260504231115 | 6 | 321 | 4.8 | 14.5 | 0.18 | 0.10 | 0.10 | 89 | 1016.0 |
| 20260504230611 | 7 | 319 | 3.2 | 12.9 | 0.13 | 0.10 | 0.10 | 85 | 1015.7 |
| 20260504230110 | 7 | 251 | 4.8 | 16.1 | 0.05 | 0.08 | 0.08 | 82 | 1015.8 |
| 20260504225608 | 8 | 144 | 3.2 | 9.7 | 0.00 | 0.08 | 0.08 | 78 | 1016.3 |
| 20260504225104 | 8 | 190 | 4.8 | 8.0 | 0.00 | 0.08 | 0.08 | 74 | 1016.1 |
| 20260504224601 | 8 | 341 | 3.2 | 17.7 | 0.00 | 0.08 | 0.08 | 74 | 1016.2 |
| 20260504224058 | 8 | 268 | 8.0 | 16.1 | 0.00 | 0.08 | 0.08 | 74 | 1016.1 |
| 20260504223555 | 8 | 237 | 8.0 | 14.5 | 0.00 | 0.08 | 0.08 | 75 | 1016.2 |
| 20260504223050 | 9 | 74 | 0.0 | 11.3 | 0.00 | 0.08 | 0.08 | 75 | 1016.1 |
| 20260504222547 | 9 | 254 | 3.2 | 14.5 | 0.00 | 0.08 | 0.08 | 74 | 1016.4 |
| 20260504222045 | 10 | 356 | 3.2 | 8.0 | 0.00 | 0.08 | 0.08 | 71 | 1016.2 |
| 20260504221542 | 9 | 97 | 4.8 | 12.9 | 0.00 | 0.08 | 0.08 | 72 | 1016.3 |
| 20260504221039 | 9 | 303 | 4.8 | 9.7 | 0.00 | 0.08 | 0.08 | 73 | 1016.2 |
| 20260504220535 | 9 | 103 | 3.2 | 16.1 | 0.00 | 0.08 | 0.08 | 74 | 1016.4 |
| 20260504220032 | 8 | 284 | 6.4 | 14.5 | 0.00 | 0.08 | 0.08 | 75 | 1016.6 |
| 20260504215528 | 8 | 271 | 8.0 | 20.9 | 0.00 | 0.08 | 0.08 | 75 | 1016.4 |
| 20260504215026 | 8 | 296 | 6.4 | 12.9 | 0.00 | 0.08 | 0.08 | 76 | 1016.6 |
| 20260504214522 | 9 | 186 | 8.0 | 14.5 | 0.00 | 0.08 | 0.08 | 75 | 1016.6 |
| 20260504214018 | 9 | 266 | 6.4 | 11.3 | 0.00 | 0.08 | 0.08 | 75 | 1016.6 |
| 20260504213515 | 9 | 88 | 1.6 | 12.9 | 0.00 | 0.08 | 0.08 | 73 | 1016.9 |
| 20260504213012 | 10 | 330 | 0.0 | 16.1 | 0.00 | 0.08 | 0.08 | 71 | 1016.9 |
| 20260504212508 | 10 | 266 | 4.8 | 12.9 | 0.00 | 0.08 | 0.08 | 69 | 1017.0 |
| 20260504212006 | 11 | 234 | 6.4 | 20.9 | 0.00 | 0.08 | 0.08 | 70 | 1016.9 |
| 20260504211502 | 11 | 312 | 8.0 | 14.5 | 0.00 | 0.08 | 0.08 | 74 | 1017.0 |
| 20260504211000 | 10 | 301 | 6.4 | 19.3 | 0.00 | 0.08 | 0.08 | 76 | 1016.9 |
| 20260504210456 | 10 | 292 | 9.7 | 19.3 | 0.00 | 0.08 | 0.08 | 76 | 1017.2 |
| 20260504205953 | 10 | 277 | 11.3 | 19.3 | 0.00 | 0.08 | 0.08 | 79 | 1017.0 |
| 20260504205450 | 8 | 28 | 3.2 | 20.9 | 0.00 | 0.08 | 0.08 | 81 | 1017.2 |
| 20260504204949 | 8 | 211 | 9.7 | 22.5 | 0.00 | 0.08 | 0.08 | 82 | 1017.3 |
| 20260504204447 | 8 | 298 | 4.8 | 16.1 | 0.00 | 0.08 | 0.08 | 82 | 1017.2 |
| 20260504203945 | 8 | 249 | 6.4 | 20.9 | 0.00 | 0.08 | 0.08 | 81 | 1017.3 |
| 20260504203443 | 8 | 170 | 8.0 | 19.3 | 0.00 | 0.08 | 0.08 | 81 | 1017.0 |
| 20260504202939 | 8 | 272 | 9.7 | 20.9 | 0.00 | 0.08 | 0.08 | 82 | 1017.2 |
| 20260504202435 | 8 | 202 | 8.0 | 14.5 | 0.00 | 0.08 | 0.08 | 88 | 1017.0 |
| 20260504201932 | 7 | 245 | 3.2 | 12.9 | 0.05 | 0.08 | 0.08 | 89 | 1017.3 |
| 20260504201430 | 7 | 269 | 6.4 | 11.3 | 0.13 | 0.08 | 0.08 | 87 | 1017.3 |
| 20260504200927 | 8 | 125 | 3.2 | 8.0 | 0.05 | 0.05 | 0.05 | 86 | 1017.8 |
| 20260504200424 | 7 | 271 | 3.2 | 11.3 | 0.00 | 0.05 | 0.05 | 84 | 1017.7 |
| 20260504195920 | 8 | 85 | 4.8 | 9.7 | 0.00 | 0.05 | 0.05 | 84 | 1017.8 |
| 20260504195416 | 8 | 129 | 12.9 | 12.9 | 0.00 | 0.05 | 0.05 | 85 | 1017.7 |
| 20260504194913 | 8 | 183 | 3.2 | 11.3 | 0.00 | 0.05 | 0.05 | 85 | 1017.7 |
| 20260504194409 | 7 | 136 | 4.8 | 6.4 | 0.00 | 0.05 | 0.05 | 86 | 1017.5 |
| 20260504193905 | 7 | 132 | 4.8 | 8.0 | 0.00 | 0.05 | 0.05 | 84 | 1017.7 |
| 20260504193403 | 7 | 288 | 0.0 | 6.4 | 0.00 | 0.05 | 0.05 | 84 | 1017.7 |
| 20260504192901 | 7 | 146 | 1.6 | 8.0 | 0.00 | 0.05 | 0.05 | 83 | 1018.0 |
| 20260504192358 | 8 | 133 | 4.8 | 8.0 | 0.00 | 0.05 | 0.05 | 82 | 1018.0 |
| 20260504191856 | 8 | 143 | 3.2 | 4.8 | 0.05 | 0.05 | 0.05 | 82 | 1018.1 |
| 20260504191354 | 8 | 129 | 4.8 | 6.4 | 0.05 | 0.05 | 0.05 | 83 | 1017.9 |
| 20260504190849 | 8 | 128 | 3.2 | 4.8 | 0.00 | 0.05 | 0.05 | 84 | 1017.9 |
| 20260504190345 | 8 | 184 | 1.6 | 4.8 | 0.00 | 0.05 | 0.05 | 85 | 1017.9 |
| 20260504185842 | 8 | 342 | 3.2 | 8.0 | 0.00 | 0.05 | 0.05 | 83 | 1018.1 |
| 20260504185339 | 8 | 129 | 3.2 | 4.8 | 0.05 | 0.05 | 0.05 | 87 | 1018.0 |
| 20260504184835 | 8 | 169 | 0.0 | 4.8 | 0.13 | 0.05 | 0.05 | 83 | 1017.8 |
| 20260504184331 | 8 | 224 | 0.0 | 4.8 | 0.13 | 0.03 | 0.03 | 81 | 1018.1 |
| 20260504183827 | 8 | 346 | 1.6 | 8.0 | 0.05 | 0.03 | 0.03 | 83 | 1017.9 |
| 20260504183325 | 7 | 299 | 3.2 | 6.4 | 0.00 | 0.00 | 0.00 | 83 | 1018.0 |
| 20260504182822 | 7 | 147 | 0.0 | 4.8 | 0.05 | 0.00 | 0.00 | 82 | 1018.0 |
| 20260504182320 | 7 | 261 | 3.2 | 6.4 | 0.00 | 0.00 | 0.00 | 82 | 1017.8 |
| 20260504181817 | 7 | 230 | 3.2 | 4.8 | 0.00 | 0.00 | 0.00 | 81 | 1018.0 |
| 20260504181314 | 7 | 127 | 0.0 | 9.7 | 0.00 | 0.00 | 0.00 | 80 | 1017.8 |
| 20260504180813 | 7 | 227 | 1.6 | 3.2 | 0.00 | 0.00 | 0.00 | 81 | 1017.8 |
| 20260504180311 | 7 | 207 | 0.0 | 9.7 | 0.00 | 0.00 | 0.00 | 81 | 1017.8 |
| 20260504175809 | 7 | 295 | 0.0 | 11.3 | 0.00 | 0.00 | 0.00 | 81 | 1017.8 |
| 20260504175305 | 7 | 48 | 1.6 | 8.0 | 0.00 | 0.00 | 0.00 | 81 | 1018.0 |
| 20260504174804 | 7 | 299 | 4.8 | 12.9 | 0.00 | 0.00 | 0.00 | 80 | 1017.7 |
| 20260504174301 | 7 | 31 | 3.2 | 8.0 | 0.00 | 0.00 | 0.00 | 80 | 1017.7 |
| 20260504173757 | 7 | 103 | 0.0 | 11.3 | 0.00 | 0.00 | 0.00 | 81 | 1017.7 |
| 20260504173254 | 7 | 80 | 0.0 | 9.7 | 0.00 | 0.00 | 0.00 | 81 | 1017.7 |
| 20260504172751 | 6 | 339 | 4.8 | 11.3 | 0.00 | 0.00 | 0.00 | 81 | 1017.8 |
| 20260504172247 | 6 | 344 | 4.8 | 9.7 | 0.00 | 0.00 | 0.00 | 82 | 1017.5 |
| 20260504171743 | 7 | 334 | 3.2 | 16.1 | 0.00 | 0.00 | 0.00 | 80 | 1017.7 |
| 20260504171241 | 7 | 338 | 3.2 | 12.9 | 0.00 | 0.00 | 0.00 | 76 | 1017.7 |
| 20260504170738 | 7 | 347 | 4.8 | 9.7 | 0.00 | 0.00 | 0.00 | 75 | 1017.4 |
| 20260504170235 | 8 | 224 | 1.6 | 6.4 | 0.00 | 0.00 | 0.00 | 76 | 1017.9 |
| 20260504160153 | 7 | 172 | 3.2 | 9.7 | 0.00 | 0.00 | 0.00 | 73 | 1017.8 |
| 20260504151121 | 7 | 21 | 0.0 | 4.8 | 0.00 | 0.00 | 0.00 | 70 | 1017.5 |
| 20260504150618 | 7 | 125 | 4.8 | 8.0 | 0.00 | 0.00 | 0.00 | 71 | 1017.3 |
| 20260504150115 | 7 | 97 | 1.6 | 8.0 | 0.00 | 0.00 | 0.00 | 70 | 1017.3 |
| 20260504141043 | 7 | 216 | 3.2 | 11.3 | 0.00 | 0.00 | 0.00 | 69 | 1016.9 |
| 20260504140540 | 6 | 186 | 0.0 | 6.4 | 0.00 | 0.00 | 0.00 | 71 | 1016.9 |